Location: Rancho Escondido Mobile Home Park
(33.1417°N, 117.1009°W)
Time: 11:18:16
(UTC+00:00)

Daily predictions for brighter satellites

Satellite Brightness Start Highest point End
(mag) Time Altitude Azimuth Time Altitude Azimuth Time Altitude Azimuth
USA 267 4.4 12:00:19 10° ESE 12:06:29 46° NE 12:12:39 10° NNW
CZ-2C R/B 4.3 12:04:24 10° NNW 12:06:59 18° WNW 12:07:45 17° W
Cosmos 1400 Rocket 4.2 12:03:22 10° SSE 12:07:00 38° E 12:10:37 10° NNE
ARIANE 5 R/B 4.4 12:04:48 10° NW 12:07:04 13° WNW 12:08:34 12° W
CZ-4B R/B 2.0 12:08:19 10° SSE 12:11:31 56° ENE 12:14:39 10° N
Cosmos 1745 Rocket 4.5 12:06:51 10° NNW 12:12:30 38° W 12:18:06 10° SSW
SJ-6F 4.5 12:09:09 10° NNE 12:13:21 90° ENE 12:17:32 10° SSW
Cosmos 1455 2.9 12:09:37 10° S 12:13:24 57° E 12:17:12 10° NNE
Landsat 5 4.1 12:10:58 10° SSW 12:14:26 31° W 12:18:02 10° NW
FENGYUN 3A 4.4 12:10:47 10° NNE 12:16:04 55° E 12:21:18 10° S
Cosmos 1300 4.2 12:15:09 17° W 12:16:18 19° WNW 12:19:03 10° NNW
Lacrosse 5 rocket 1.9 12:12:36 11° SSW 12:16:52 64° SE 12:21:25 10° NE
Meteor 2-1 Rocket 4.3 12:17:09 10° S 12:22:58 86° W 12:28:55 10° N
SeaSat 1 3.0 12:18:54 10° N 12:23:30 40° WNW 12:27:59 10° SW
ADEOS Rocket 4.0 12:16:45 10° SSE 12:24:17 73° ENE 12:32:03 10° N
ERS-2 3.2 12:24:30 10° SSW 12:27:27 23° W 12:30:26 10° NW
Cosmos 2058 3.1 12:24:55 10° N 12:29:07 81° E 12:33:18 10° S
DELTA 2 R/B (1) 4.3 12:28:01 10° SW 12:33:22 46° SSE 12:38:42 10° ENE
TSX-5 3.7 12:39:04 10° SW 12:42:08 43° WNW 12:45:10 10° N
SAR-Lupe-4 3.9 12:40:35 10° S 12:43:59 43° W 12:47:24 10° NNW
COSMO-SKYMED 1 4.3 12:40:18 10° SE 12:44:19 39° ENE 12:48:21 10° N
METEOR-M 4.2 12:39:46 10° NNE 12:45:08 89° E 12:50:29 10° SSW
